Temperature
17 17 17 16 16 16 16 16 15 15 15 15 15 15 14 14 14 14 14 14 14 14 14 14 14 14 14 14 14 14 14 14 14 14 14 14 14 14 14 14 14 14 14
17 17 16 16 16 16 16 15 15 15 15 15 15 14 14 14 14 14 14 14 14 14 14 14 14 14 14 14 14 14 14 14 14 13 13 13 13 13 13 13 13 13 13
16 16 16 16 16 15 15 15 15 15 15 14 14 14 14 14 14 14 14 14 14 14 14 14 14 14 14 14 13 13 13 13 13 13 13 13 13 13 13 13 13 13 13
16 16 16 16 15 15 15 15 15 15 14 14 14 14 14 14 14 14 14 14 14 14 13 13 13 13 13 13 13 13 13 13 13 13 13 13 13 13 13 13 13 13 13
16 16 16 15 15 15 15 15 14 14 14 14 14 14 14 14 14 14 14 14 14 14 13 13 13 13 13 13 13 13 13 13 13 13 13 13 13 12 12 12 12 12 12
15 15 15 15 15 15 14 14 14 14 14 14 14 14 14 13 13 13 13 13 13 13 13 13 13 13 13 13 13 13 13 13 13 13 12 12 12 12 12 12 12 12 12
15 15 15 14 14 14 14 14 14 14 14 14 13 13 13 13 13 13 13 13 13 13 13 13 13 13 13 13 13 13 12 12 12 12 12 12 12 12 12 12 12 12 12
15 14 14 14 14 14 14 14 13 13 13 13 13 13 13 13 13 13 13 13 13 13 13 13 13 13 13 13 13 12 12 12 12 12 12 12 12 12 12 12 11 11 11
14 14 14 14 14 13 13 13 13 13 13 13 13 13 13 13 13 13 13 13 13 13 13 13 13 13 13 12 12 12 12 12 12 12 12 12 12 12 11 11 11 11 11
14 14 14 13 13 13 13 13 13 13 13 13 13 13 13 12 12 12 13 13 12 12 12 12 12 12 12 12 12 12 12 12 12 12 12 12 12 11 11 11 11 11 11
13 13 13 13 13 13 13 13 13 13 13 13 13 13 12 12 12 12 12 12 12 12 12 12 12 12 12 12 12 12 12 12 12 12 11 11 11 11 11 11 11 11 11
13 13 13 13 13 12 12 12 12 12 12 12 12 12 12 12 12 12 12 12 12 12 12 12 12 12 12 12 12 12 12 12 12 11 11 11 11 11 11 11 11 11 11
13 13 13 12 12 12 12 12 12 12 12 12 12 12 12 12 12 12 12 12 12 12 12 11 11 11 11 11 11 11 11 11 11 11 11 11 11 11 11 11 11 11 11
12 12 12 12 12 12 12 12 12 12 12 12 12 12 12 12 12 12 12 12 11 11 11 11 11 11 11 11 11 11 11 11 11 11 11 11 11 11 11 11 10 10 11
12 12 12 12 12 12 12 12 12 12 12 12 12 12 12 12 12 12 11 11 11 11 11 11 11 11 11 11 11 11 11 11 11 11 11 11 11 10 10 10 10 10 10
12 11 11 11 11 11 11 11 11 11 11 11 12 12 12 12 11 11 11 11 11 11 11 11 10 10 10 10 10 11 11 11 11 10 10 10 10 10 10 10 10 10 10
11 11 11 11 11 11 11 11 11 11 11 11 11 11 11 11 11 11 11 11 11 11 10 10 10 10 10 10 10 10 10 10 10 10 10 10 10 10 10 10 10 10 10
11 11 11 11 11 10 10 10 11 11 11 11 11 11 11 11 11 11 10 10 10 11 10 10 10 10 10 10 10 10 10 10 10 10 10 10 10 10 10 10 10 10 10
11 11 11 11 10 10 10 10 10 10 11 11 11 11 11 11 11 11 10 10 10 10 10 10 10 10 10 10 10 10 10 10 10 10 10 10 10 10 9 9 9 9 9
10 10 10 10 10 10 10 10 10 10 10 10 10 10 10 10 10 10 10 10 10 10 10 10 10 10 10 10 10 10 10 10 10 10 10 9 9 9 9 9 9 9 9
10 10 10 10 10 10 10 10 10 10 10 10 10 10 10 10 10 10 10 10 10 10 10 10 10 10 10 10 9 9 9 9 9 9 9 9 9 9 9 9 9 9 9
10 10 10 10 10 10 10 10 10 10 10 10 10 10 10 10 10 10 10 10 10 10 10 9 9 10 9 9 9 9 9 9 9 9 9 9 9 9 9 9 9 9 8
10 10 10 10 10 10 10 10 10 10 10 10 10 10 10 10 10 10 10 10 10 9 9 9 9 9 9 9 9 9 9 9 8 8 8 8 8 8 8 8 8 8 8
10 10 10 10 10 10 10 10 10 10 10 10 10 9 9 10 10 10 9 9 9 9 9 9 9 9 9 9 8 8 8 8 8 8 8 8 8 8 8 8 8 8 8
10 9 9 9 9 9 9 9 9 9 9 9 9 9 9 9 9 9 9 9 8 8 8 8 8 8 8 8 8 8 8 8 8 8 8 8 8 8 7 7 7 7 7
9 9 9 9 9 9 9 9 9 9 9 8 8 8 8 8 8 8 8 8 8 8 8 8 8 8 8 8 7 7 7 7 7 7 7 7 7 7 7 7 7 7 7
Wind_Speed
7 6 6 5 5 5 5 5 5 4 4 4 4 4 4 4 4 3 3 2 2 2 1 1 2 1 1 1 1 1 2 2 3 3 2 1 1 2 2 2 2 4 5
6 6 5 5 5 5 5 5 5 5 5 4 4 4 4 4 3 4 4 3 3 2 2 1 2 1 1 1 1 1 2 2 3 3 2 1 2 2 2 1 1 2 4
5 5 5 5 6 5 5 5 4 5 4 4 4 4 4 3 3 3 4 3 3 3 3 2 2 2 2 2 2 2 2 1 2 2 2 2 1 1 1 1 1 1 2
5 5 5 5 6 5 5 4 4 5 5 4 4 4 4 4 3 3 4 3 3 3 2 2 2 2 3 3 2 2 2 1 1 1 2 2 1 1 0 1 2 2 2
6 5 5 5 4 4 4 3 4 4 5 4 4 4 4 3 3 3 3 3 3 3 2 2 3 3 3 3 3 3 2 2 1 1 2 1 1 1 1 1 1 2 2
5 4 3 4 4 4 3 3 3 3 3 3 4 4 4 3 3 5 4 3 3 3 3 3 3 2 2 2 3 4 5 4 4 3 3 3 3 2 2 1 1 0 2
4 4 3 4 4 4 4 3 3 3 3 3 3 4 4 4 5 5 5 4 4 4 4 4 3 2 2 2 1 1 2 4 6 5 4 5 4 4 3 2 2 3 3
3 3 3 4 4 3 4 4 3 2 3 3 3 4 3 4 5 5 5 4 4 4 5 5 4 3 3 3 2 1 2 3 4 4 5 6 5 5 5 5 4 2 2
3 3 4 4 4 4 4 4 3 3 3 3 3 4 4 4 6 6 5 3 2 3 3 3 4 4 5 4 2 1 2 3 3 3 5 5 6 6 5 3 2 1 1
3 2 3 4 4 4 4 4 2 3 3 2 2 3 5 5 7 7 5 3 2 2 1 2 4 4 5 5 3 3 4 4 2 2 2 3 4 4 5 5 5 4 2
3 2 2 2 3 4 3 2 2 2 2 2 2 2 3 4 6 6 5 3 3 2 2 2 2 4 4 4 4 4 6 5 3 2 2 2 2 2 3 4 5 5 4
2 2 2 2 2 2 3 2 2 3 3 2 1 1 1 2 3 4 5 5 4 3 3 2 3 3 3 3 3 4 4 2 2 1 1 2 2 3 3 4 5 6 6
2 2 2 1 1 1 2 3 2 3 3 2 2 2 2 1 2 4 4 4 4 3 2 3 3 3 2 2 3 3 2 2 2 2 2 3 3 3 2 1 1 1 2
2 2 2 2 1 1 1 2 3 3 3 3 3 3 2 1 2 2 1 2 2 1 1 1 1 1 1 1 1 1 1 2 3 3 3 2 1 1 1 1 1 0 1
2 2 1 1 1 1 1 2 3 3 5 5 4 4 4 3 4 5 4 3 3 3 2 1 1 1 1 1 1 1 1 1 2 2 2 2 1 1 1 1 1 1 1
3 2 2 1 1 1 1 1 2 2 3 3 4 4 3 5 5 6 6 5 4 4 4 2 1 2 2 2 2 2 1 2 2 2 2 2 2 2 1 1 1 1 1
4 4 3 2 2 2 2 2 1 3 3 1 3 4 5 5 5 6 6 5 4 5 3 2 3 3 3 3 3 3 2 2 2 2 2 2 2 2 1 1 1 1 1
3 4 3 3 3 3 2 2 2 2 1 2 2 3 5 5 5 4 4 3 1 2 2 3 3 3 3 3 3 2 2 1 1 1 2 2 2 2 1 1 2 2 2
3 4 3 3 3 3 2 2 2 2 2 1 1 2 2 2 2 1 3 2 2 2 2 2 3 3 3 3 3 2 2 2 1 1 1 2 2 2 2 2 2 2 1
3 4 3 3 2 2 2 2 2 2 2 2 2 2 0 1 1 1 2 2 2 3 3 3 2 2 2 2 2 2 2 1 1 1 2 2 2 2 3 3 2 2 2
3 3 2 2 2 3 3 3 3 2 3 3 3 3 3 2 3 3 3 3 3 3 3 3 2 2 2 2 2 2 2 1 2 2 2 2 2 2 2 2 2 2 2
2 2 2 2 2 2 2 2 2 2 2 2 2 2 4 2 2 2 2 3 3 3 3 3 3 2 3 3 3 2 2 2 1 1 1 1 1 1 1 1 1 1 1
1 1 1 1 2 2 2 2 2 2 2 3 2 2 2 3 3 3 3 3 2 2 2 2 2 2 2 2 2 3 3 3 3 3 2 2 1 1 1 2 2 2 2
1 1 2 1 1 2 2 1 1 2 2 2 2 2 2 3 3 3 2 2 2 2 2 2 2 3 2 1 1 2 2 3 3 3 3 3 2 2 2 2 2 2 2
1 1 1 1 1 1 1 1 1 1 1 1 1 1 1 1 1 1 1 1 2 1 1 1 2 2 2 2 1 1 2 2 2 2 2 2 2 2 2 2 2 2 1
1 1 1 0 0 1 1 1 1 1 1 0 0 0 1 1 1 1 0 1 1 1 1 1 2 2 1 1 1 1 1 1 1 1 1 1 2 1 1 1 2 1 1
Wind_Direction
177 175 172 173 172 169 171 183 186 184 184 182 182 183 187 189 185 174 194 192 195 227 244 220 258 252 233 247 207 203 203 190 220 268 263 266 258 271 284 269 246 228 234
174 165 166 165 167 177 184 189 187 190 191 187 179 176 186 188 183 186 200 199 186 196 222 231 262 253 226 220 211 228 224 203 193 238 275 280 262 242 243 260 270 249 239
162 163 164 164 175 187 193 196 190 190 191 185 173 174 179 176 180 193 194 201 197 201 206 217 247 226 225 228 219 222 232 224 190 201 248 265 275 260 268 290 295 290 274
161 166 175 183 187 191 193 191 189 189 185 179 179 179 179 177 180 191 194 195 196 202 207 216 228 212 218 219 218 216 210 198 186 193 235 271 277 281 167 260 310 310 297
162 176 188 187 173 168 175 184 181 184 185 175 175 181 184 183 194 188 189 185 190 206 224 232 229 208 212 210 214 204 191 192 195 206 231 261 276 287 249 238 249 297 306
162 178 186 175 165 168 176 170 162 169 171 164 186 186 193 209 197 187 179 184 191 200 220 239 241 233 232 216 208 202 191 192 203 208 224 221 236 226 223 217 196 347 293
159 167 175 172 171 179 177 160 172 185 175 176 188 187 198 208 194 190 186 186 199 208 213 218 231 230 207 199 213 244 243 226 209 199 205 218 218 215 197 209 209 206 237
163 177 179 174 177 185 179 169 181 198 189 192 199 200 201 216 197 196 193 191 206 217 214 207 204 215 209 185 186 231 269 264 240 214 208 221 221 210 197 199 205 215 270
163 182 188 182 178 178 183 181 185 194 199 203 200 198 205 217 204 197 179 177 202 222 219 206 194 201 211 183 165 211 273 286 280 234 225 228 232 226 202 172 177 164 257
174 180 184 180 182 188 196 196 194 190 205 202 210 213 207 212 207 196 176 176 195 221 235 224 208 201 207 192 186 200 235 253 259 287 288 281 255 244 219 194 188 187 201
171 156 145 170 181 191 198 187 189 193 188 190 210 231 216 208 203 196 181 178 190 195 207 230 236 219 215 215 210 212 225 227 224 233 263 280 277 253 236 218 199 188 195
148 146 145 155 177 182 181 183 180 177 174 189 200 226 253 213 196 199 188 188 187 185 206 221 233 235 228 224 224 229 230 198 179 193 232 256 251 246 242 236 224 218 219
130 139 147 149 179 177 178 179 179 176 179 191 186 208 249 240 212 201 195 194 185 180 209 228 249 238 241 242 253 233 182 152 161 190 229 242 240 236 235 245 262 246 257
147 151 145 149 169 201 194 190 191 194 190 187 192 204 214 211 199 190 193 189 175 165 211 262 253 247 259 269 300 284 188 187 188 208 232 241 235 228 219 204 212 307 341
160 172 170 170 164 157 180 225 216 218 205 194 206 202 192 206 215 192 183 194 197 196 148 98 79 50 331 313 305 288 248 201 216 229 221 229 221 216 247 231 204 187 200
171 180 187 193 191 178 176 299 322 265 243 216 210 199 209 210 193 186 194 201 195 172 142 147 191 216 231 241 252 263 255 235 229 221 215 210 215 224 242 241 196 189 231
185 191 191 191 195 198 193 192 278 337 348 292 242 223 218 212 201 194 194 196 184 154 154 198 215 223 233 241 238 233 244 244 221 207 211 209 208 210 204 220 229 236 251
195 198 195 197 200 204 204 207 202 203 277 310 306 253 234 224 211 198 183 141 116 153 199 219 229 229 224 232 240 238 240 240 216 216 218 211 200 195 197 219 226 228 241
204 208 204 203 203 201 200 204 206 206 217 226 294 315 260 232 228 201 150 151 187 212 221 230 229 221 214 216 219 221 211 210 206 200 222 230 215 198 209 226 234 243 244
214 217 199 196 198 196 195 200 208 212 219 211 223 243 242 93 112 208 195 201 209 225 228 232 233 208 204 205 200 197 200 209 213 214 226 229 222 213 215 218 219 233 246
206 205 197 188 199 204 202 204 209 211 220 222 231 234 192 183 197 204 207 211 216 223 229 230 226 213 212 206 196 197 201 222 225 220 225 234 230 231 231 225 227 231 243
191 203 208 204 201 203 206 209 207 209 224 230 238 228 200 202 202 198 210 228 228 226 219 210 217 218 210 204 198 192 199 216 237 235 227 231 233 228 230 249 261 256 248
165 171 175 197 197 192 197 212 212 217 226 231 222 198 192 208 216 214 215 223 224 223 223 208 202 215 216 193 192 191 198 216 222 214 217 224 224 231 234 243 251 264 266
161 185 191 199 194 187 190 195 204 212 214 222 219 216 210 210 213 218 217 216 209 216 213 195 189 192 181 184 202 209 213 222 217 213 202 214 230 237 236 244 246 252 253
163 168 182 190 181 181 185 199 220 231 236 232 227 237 232 211 215 227 225 206 191 191 185 162 156 169 179 182 206 239 259 244 226 222 212 206 215 229 239 250 251 257 267
191 187 200 177 155 171 173 193 221 217 200 250 277 230 215 198 187 195 197 183 184 177 166 151 160 164 184 242 269 309 315 279 243 227 216 209 217 235 243 244 247 237 237
Height
1484 1486 1487 1489 1490 1492 1493 1494 1496 1497 1498 1499 1499 1500 1501 1502 1503 1504 1504 1504 1504 1504 1504 1504 1504 1504 1505 1505 1506 1506 1506 1507 1506 1506 1507 1507 1506 1506 1506 1506 1507 1507 1507
1482 1484 1485 1487 1488 1489 1491 1492 1493 1494 1495 1496 1497 1498 1499 1500 1501 1501 1502 1502 1502 1502 1502 1502 1501 1502 1502 1503 1503 1504 1504 1504 1504 1503 1504 1504 1504 1504 1504 1504 1504 1504 1504
1480 1482 1483 1484 1485 1486 1488 1489 1490 1491 1492 1494 1495 1495 1496 1497 1498 1499 1500 1500 1500 1500 1500 1500 1499 1500 1500 1500 1500 1501 1502 1502 1502 1501 1501 1501 1501 1501 1501 1501 1501 1501 1502
1478 1479 1481 1482 1483 1484 1485 1486 1487 1488 1490 1491 1492 1493 1494 1495 1495 1496 1497 1497 1498 1498 1498 1498 1498 1497 1498 1498 1498 1498 1499 1499 1499 1499 1498 1498 1499 1499 1499 1498 1498 1499 1499
1476 1477 1479 1480 1481 1482 1483 1484 1485 1486 1487 1488 1489 1490 1491 1492 1492 1493 1494 1495 1495 1495 1495 1495 1495 1495 1495 1495 1495 1496 1496 1496 1496 1496 1496 1496 1496 1496 1496 1496 1496 1496 1496
1474 1475 1476 1477 1478 1479 1480 1481 1482 1483 1484 1485 1486 1486 1487 1488 1489 1490 1490 1491 1492 1492 1492 1492 1492 1492 1493 1493 1493 1493 1493 1493 1493 1493 1493 1493 1493 1493 1494 1494 1494 1493 1493
1473 1473 1474 1474 1475 1476 1477 1478 1479 1480 1481 1482 1482 1483 1484 1485 1486 1486 1487 1488 1488 1488 1489 1489 1488 1489 1490 1490 1490 1490 1490 1490 1490 1490 1490 1490 1490 1490 1491 1491 1491 1490 1490
1470 1471 1471 1472 1473 1474 1475 1475 1476 1477 1478 1478 1479 1480 1481 1482 1483 1483 1484 1485 1485 1485 1485 1485 1485 1486 1486 1487 1487 1486 1486 1486 1487 1487 1487 1487 1488 1488 1488 1488 1488 1488 1487
1468 1469 1469 1470 1471 1471 1472 1473 1474 1475 1475 1476 1477 1477 1478 1478 1479 1480 1481 1481 1482 1482 1482 1482 1483 1483 1484 1484 1484 1483 1483 1483 1484 1484 1484 1484 1485 1485 1485 1485 1485 1485 1484
1466 1467 1467 1468 1469 1469 1470 1471 1472 1472 1473 1474 1474 1475 1475 1475 1476 1477 1478 1478 1478 1479 1479 1480 1480 1480 1480 1481 1481 1480 1480 1480 1481 1481 1481 1481 1482 1482 1482 1482 1482 1482 1482
1465 1466 1466 1467 1467 1468 1469 1469 1470 1470 1471 1471 1472 1472 1472 1472 1473 1474 1474 1475 1475 1476 1476 1476 1477 1477 1477 1478 1478 1478 1477 1478 1478 1478 1478 1478 1479 1479 1479 1479 1479 1479 1479
1463 1464 1465 1465 1466 1466 1467 1467 1467 1468 1468 1469 1469 1470 1470 1470 1470 1471 1472 1472 1473 1473 1473 1474 1474 1475 1475 1475 1475 1475 1475 1475 1475 1475 1475 1475 1475 1476 1476 1476 1477 1477 1477
1462 1462 1462 1463 1464 1464 1464 1464 1465 1465 1466 1466 1467 1467 1467 1468 1468 1469 1469 1470 1470 1470 1471 1471 1472 1472 1472 1472 1472 1472 1473 1473 1473 1472 1472 1472 1473 1473 1473 1474 1474 1474 1474
1460 1460 1460 1461 1461 1462 1462 1462 1462 1463 1463 1463 1464 1465 1465 1466 1466 1466 1467 1467 1468 1468 1468 1469 1469 1470 1470 1470 1470 1470 1470 1470 1470 1470 1470 1470 1470 1470 1471 1471 1471 1471 1471
1459 1459 1459 1459 1459 1460 1460 1460 1461 1461 1461 1461 1462 1463 1463 1463 1464 1465 1464 1464 1464 1465 1466 1466 1467 1467 1467 1467 1467 1467 1467 1468 1468 1468 1468 1468 1468 1468 1468 1469 1469 1469 1469
1457 1457 1457 1458 1458 1458 1458 1459 1459 1460 1460 1460 1461 1462 1462 1463 1463 1463 1463 1463 1463 1464 1464 1463 1464 1465 1465 1465 1465 1465 1465 1465 1465 1465 1465 1465 1465 1466 1466 1467 1467 1467 1466
1455 1455 1456 1456 1456 1456 1456 1456 1457 1458 1458 1459 1459 1460 1461 1461 1461 1461 1462 1462 1462 1462 1461 1461 1462 1462 1463 1463 1463 1463 1463 1463 1463 1463 1463 1463 1463 1463 1464 1464 1464 1464 1463
1454 1454 1454 1455 1455 1455 1455 1455 1456 1456 1456 1456 1458 1458 1459 1459 1460 1460 1461 1460 1459 1459 1459 1459 1459 1460 1460 1461 1460 1460 1461 1461 1461 1461 1461 1461 1461 1461 1461 1461 1461 1461 1460
1452 1452 1453 1453 1454 1454 1454 1454 1454 1455 1455 1455 1456 1457 1457 1458 1458 1458 1458 1458 1457 1457 1457 1457 1457 1458 1457 1458 1458 1458 1458 1458 1458 1458 1458 1458 1458 1458 1458 1458 1458 1458 1457
1451 1451 1451 1451 1452 1452 1452 1453 1453 1453 1454 1454 1454 1455 1455 1455 1455 1455 1455 1455 1455 1455 1455 1455 1455 1455 1455 1455 1455 1455 1455 1455 1455 1455 1455 1455 1455 1455 1455 1455 1455 1455 1454
1449 1449 1450 1450 1450 1450 1451 1451 1451 1451 1452 1452 1453 1453 1454 1453 1453 1453 1453 1453 1453 1453 1453 1453 1452 1452 1453 1453 1453 1453 1453 1452 1452 1452 1452 1452 1452 1452 1452 1452 1452 1452 1452
1447 1447 1447 1448 1448 1449 1449 1450 1450 1450 1450 1451 1451 1451 1452 1451 1451 1451 1451 1451 1451 1451 1451 1451 1450 1450 1450 1450 1450 1450 1450 1449 1449 1449 1449 1450 1450 1449 1449 1449 1449 1449 1449
1445 1445 1446 1446 1446 1447 1447 1448 1448 1448 1448 1448 1449 1449 1449 1449 1448 1448 1448 1448 1448 1448 1448 1448 1447 1447 1447 1447 1447 1447 1447 1446 1446 1447 1447 1447 1447 1446 1446 1446 1446 1446 1445
1443 1443 1443 1444 1444 1445 1445 1445 1445 1445 1446 1446 1446 1446 1445 1445 1445 1445 1445 1445 1445 1445 1445 1444 1444 1444 1444 1444 1444 1444 1444 1444 1444 1443 1443 1443 1443 1443 1443 1443 1443 1443 1442
1442 1442 1442 1442 1442 1442 1443 1443 1443 1443 1443 1443 1443 1443 1443 1442 1442 1442 1442 1442 1442 1442 1441 1442 1441 1441 1441 1441 1441 1441 1441 1441 1440 1440 1440 1440 1440 1440 1440 1439 1439 1439 1439
1441 1441 1441 1440 1439 1440 1440 1440 1441 1440 1440 1440 1440 1439 1439 1439 1439 1439 1438 1438 1438 1438 1438 1438 1438 1438 1438 1438 1438 1437 1437 1437 1437 1437 1437 1436 1436 1436 1436 1436 1436 1436 1436